FW9830 Weather Reports


Display with metric or nautical units.
time (UTC)temp
F
wind
direction
speed
MPH
gust
MPH
rain 1hr
in
rain 24hr
in
rain mn
in
humidity
%
barometer
mb
20260508121137 47 235 17.0 18.0 0.00 0.00 0.00 71 1011.1
20260508120634 46 243 13.0 18.0 0.00 0.00 0.00 72 1011.3
20260508120133 46 236 13.0 18.0 0.00 0.00 0.00 73 1011.2
20260508115630 46 226 14.0 14.0 0.00 0.00 0.00 74 1011.1
20260508115127 45 232 12.0 15.0 0.00 0.00 0.00 75 1011.1
20260508114624 45 226 13.0 14.0 0.00 0.00 0.00 78 1011.1
20260508114119 44 228 8.0 17.0 0.00 0.00 0.00 78 1010.9
20260508113617 44 232 15.0 17.0 0.00 0.00 0.00 78 1011.0
20260508113116 44 230 11.0 15.0 0.00 0.00 0.00 78 1011.0
20260508112611 44 235 8.0 12.0 0.00 0.00 0.00 78 1011.1
20260508112108 43 242 7.0 11.0 0.00 0.00 0.00 78 1010.9
20260508111605 44 216 8.0 13.0 0.00 0.00 0.00 77 1011.0
20260508111102 43 236 8.0 12.0 0.00 0.00 0.00 78 1011.0
20260508110600 43 227 12.0 18.0 0.00 0.00 0.00 79 1011.0
20260508110056 43 226 9.0 18.0 0.00 0.00 0.00 78 1010.9
20260508105551 43 230 12.0 12.0 0.00 0.00 0.00 78 1010.9
20260508105048 43 236 8.0 13.0 0.00 0.00 0.00 79 1011.0
20260508104546 43 222 8.0 14.0 0.00 0.00 0.00 79 1011.1
20260508104042 43 221 7.0 12.0 0.00 0.00 0.00 79 1011.1
20260508103539 43 218 11.0 14.0 0.00 0.00 0.00 78 1010.9
20260508103037 43 217 8.0 13.0 0.00 0.00 0.00 78 1011.1
20260508102534 43 223 5.0 15.0 0.00 0.00 0.00 77 1011.1
20260508102032 43 238 7.0 12.0 0.00 0.00 0.00 76 1011.0
20260508101529 42 225 7.0 10.0 0.00 0.00 0.00 78 1011.0
20260508101026 42 215 5.0 10.0 0.00 0.00 0.00 78 1011.1
20260508100525 42 229 6.0 9.0 0.00 0.00 0.00 77 1011.0
20260508100021 42 209 5.0 6.0 0.00 0.00 0.00 78 1011.2
20260508095518 42 216 3.0 5.0 0.00 0.00 0.00 79 1011.1
20260508095015 42 217 6.0 7.0 0.00 0.00 0.00 79 1011.3
20260508094512 41 214 3.0 7.0 0.00 0.00 0.00 77 1011.5
20260508094009 41 215 5.0 8.0 0.00 0.00 0.00 76 1011.1
20260508093506 41 220 5.0 7.0 0.00 0.00 0.00 76 1011.3
20260508093004 40 206 5.0 8.0 0.00 0.00 0.00 77 1011.1
20260508092501 38 184 4.0 5.0 0.00 0.00 0.00 80 1011.4
20260508092000 38 195 4.0 5.0 0.00 0.00 0.00 81 1011.4
20260508091456 37 180 3.0 4.0 0.00 0.00 0.00 83 1011.5
20260508090953 37 153 4.0 4.0 0.00 0.00 0.00 83 1011.2
20260508090452 37 180 1.0 4.0 0.00 0.00 0.00 83 1011.4
20260508085947 37 169 4.0 4.0 0.00 0.00 0.00 82 1011.3
20260508085444 38 173 5.0 5.0 0.00 0.00 0.00 81 1011.3
20260508084941 38 186 4.0 6.0 0.00 0.00 0.00 81 1011.3
20260508084437 39 196 5.0 7.0 0.00 0.00 0.00 79 1011.5
20260508083936 40 200 5.0 7.0 0.00 0.00 0.00 79 1011.6
20260508083433 40 197 5.0 7.0 0.00 0.00 0.00 79 1011.3
20260508082932 40 197 5.0 8.0 0.00 0.00 0.00 79 1011.5
20260508082430 40 196 6.0 7.0 0.00 0.00 0.00 80 1011.4
20260508081928 41 202 6.0 8.0 0.00 0.00 0.00 79 1011.5
20260508081424 40 198 7.0 11.0 0.00 0.00 0.00 79 1011.7
20260508080921 41 198 7.0 10.0 0.00 0.00 0.00 79 1011.6
20260508080419 40 204 8.0 10.0 0.00 0.00 0.00 79 1011.7
20260508075915 40 199 9.0 9.0 0.00 0.00 0.00 79 1011.7
20260508075413 41 222 7.0 10.0 0.00 0.00 0.00 79 1011.9
20260508074910 40 206 6.0 7.0 0.00 0.00 0.00 80 1011.9
20260508074407 40 205 8.0 9.0 0.00 0.00 0.00 79 1011.8
20260508073904 40 195 5.0 11.0 0.00 0.00 0.00 79 1011.8
20260508073402 40 206 6.0 7.0 0.00 0.00 0.00 80 1012.0
20260508072858 39 212 5.0 7.0 0.00 0.00 0.00 79 1011.9
20260508072355 39 217 6.0 6.0 0.00 0.00 0.00 78 1012.0
20260508071852 40 197 6.0 6.0 0.00 0.00 0.00 77 1012.0
20260508071350 39 208 5.0 6.0 0.00 0.00 0.00 77 1012.2
20260508070848 39 202 4.0 5.0 0.00 0.00 0.00 78 1012.2
20260508070346 38 193 4.0 5.0 0.00 0.00 0.00 78 1012.1
20260508065843 39 196 5.0 6.0 0.00 0.00 0.00 77 1012.5
20260508065341 39 199 5.0 7.0 0.00 0.00 0.00 77 1012.4
20260508064839 39 196 7.0 9.0 0.00 0.00 0.00 76 1012.3
20260508064336 38 192 6.0 7.0 0.00 0.00 0.00 77 1012.5
20260508063833 38 200 7.0 7.0 0.00 0.00 0.00 77 1012.4
20260508063331 38 192 6.0 7.0 0.00 0.00 0.00 77 1012.3
20260508062828 38 193 7.0 8.0 0.00 0.00 0.00 76 1012.3
20260508062326 38 189 3.0 7.0 0.00 0.00 0.00 77 1012.6
20260508061822 37 188 6.0 7.0 0.00 0.00 0.00 77 1012.4
20260508061320 37 181 5.0 6.0 0.00 0.00 0.00 77 1012.6
20260508060816 38 166 6.0 6.0 0.00 0.00 0.00 76 1012.7
20260508060314 38 180 3.0 5.0 0.00 0.00 0.00 75 1012.9
20260508055809 38 180 5.0 7.0 0.00 0.00 0.00 75 1012.7
20260508055307 39 198 6.0 9.0 0.00 0.00 0.00 74 1012.9
20260508054803 38 189 6.0 9.0 0.00 0.00 0.00 75 1012.7
20260508054301 38 180 3.0 7.0 0.00 0.00 0.00 75 1013.0
20260508053757 38 187 5.0 7.0 0.00 0.00 0.00 75 1012.9
20260508053255 39 197 5.0 7.0 0.00 0.00 0.00 74 1012.6
20260508052752 38 197 5.0 7.0 0.00 0.00 0.00 75 1012.8
20260508052249 38 208 3.0 4.0 0.00 0.00 0.00 76 1013.0
20260508051745 38 190 6.0 7.0 0.00 0.00 0.00 76 1012.8
20260508051240 39 180 4.0 8.0 0.00 0.00 0.00 74 1013.1
20260508050737 39 200 7.0 9.0 0.00 0.00 0.00 73 1013.0
20260508050235 39 207 6.0 8.0 0.00 0.00 0.00 74 1013.0
20260508045730 39 197 7.0 10.0 0.00 0.00 0.00 73 1013.2
20260508045228 39 199 8.0 10.0 0.00 0.00 0.00 73 1013.2
20260508044725 39 189 6.0 9.0 0.00 0.00 0.00 73 1012.7
20260508044222 40 161 6.0 10.0 0.00 0.00 0.00 73 1012.9
20260508043718 40 188 5.0 9.0 0.00 0.00 0.00 73 1013.1
20260508043216 39 195 6.0 10.0 0.00 0.00 0.00 74 1012.9
20260508042712 39 191 5.0 9.0 0.00 0.00 0.00 74 1012.8
20260508042210 40 203 7.0 10.0 0.00 0.00 0.00 74 1012.9
20260508041705 40 195 6.0 11.0 0.00 0.00 0.00 74 1013.0
20260508041203 39 192 6.0 10.0 0.00 0.00 0.00 75 1012.8
20260508040659 40 195 10.0 10.0 0.00 0.00 0.00 76 1012.8
20260508040157 40 193 8.0 10.0 0.00 0.00 0.00 77 1012.9
20260508035654 40 191 8.0 9.0 0.00 0.00 0.00 76 1012.8
20260508035151 41 197 11.0 11.0 0.00 0.00 0.00 75 1012.8
20260508034647 41 198 10.0 10.0 0.00 0.00 0.00 75 1012.7
20260508034145 41 194 7.0 11.0 0.00 0.00 0.00 75 1012.7
20260508033642 41 201 10.0 11.0 0.00 0.00 0.00 75 1012.5
20260508033141 41 198 8.0 12.0 0.00 0.00 0.00 75 1012.7
20260508032637 41 191 10.0 12.0 0.00 0.00 0.00 76 1012.6
20260508032134 41 193 7.0 12.0 0.00 0.00 0.00 76 1012.8
20260508031631 41 184 7.0 9.0 0.00 0.00 0.00 76 1012.7
20260508031127 42 192 5.0 10.0 0.00 0.00 0.00 76 1012.6
20260508030624 42 195 7.0 11.0 0.00 0.00 0.00 75 1012.9
20260508030121 42 179 6.0 10.0 0.00 0.00 0.00 74 1012.9
20260508025618 43 179 7.0 11.0 0.00 0.00 0.00 73 1012.8
20260508025115 43 158 5.0 13.0 0.00 0.00 0.00 72 1012.9
20260508024610 43 164 6.0 10.0 0.00 0.00 0.00 72 1012.9
20260508024108 43 178 7.0 10.0 0.00 0.00 0.00 72 1012.7
20260508023604 43 169 4.0 7.0 0.00 0.00 0.00 70 1012.8
20260508023102 43 192 7.0 8.0 0.00 0.00 0.00 71 1012.7
20260508022557 44 183 5.0 7.0 0.00 0.00 0.00 68 1012.4
20260508022055 44 167 6.0 7.0 0.00 0.00 0.00 65 1012.4
20260508021550 47 124 2.0 3.0 0.00 0.00 0.00 56 1012.5
20260508021046 48 74 0.0 1.0 0.00 0.00 0.00 48 1012.6
20260508020544 48 75 0.0 2.0 0.00 0.00 0.00 48 1012.5
20260508020042 48 41 2.0 3.0 0.00 0.00 0.00 48 1012.4
20260508015539 48 14 3.0 3.0 0.00 0.00 0.00 49 1012.5
20260508015036 48 18 2.0 3.0 0.00 0.00 0.00 50 1012.4
20260508014532 48 7 2.0 3.0 0.00 0.00 0.00 50 1012.3
20260508014028 49 10 2.0 3.0 0.00 0.00 0.00 50 1012.3
20260508013524 49 63 0.0 3.0 0.00 0.00 0.00 51 1012.3
20260508013022 49 45 2.0 3.0 0.00 0.00 0.00 49 1012.1
20260508012519 49 57 1.0 3.0 0.00 0.00 0.00 49 1012.1
20260508012016 49 90 0.0 2.0 0.00 0.00 0.00 49 1011.9
20260508011515 49 79 0.0 2.0 0.00 0.00 0.00 50 1011.9
20260508011012 49 74 0.0 2.0 0.00 0.00 0.00 49 1012.0
20260508010508 50 66 2.0 2.0 0.00 0.00 0.00 50 1011.8
20260508010006 50 77 0.0 2.0 0.00 0.00 0.00 49 1012.0
20260508005502 50 42 3.0 3.0 0.00 0.00 0.00 49 1012.2
20260508004959 50 334 0.0 2.0 0.00 0.00 0.00 48 1011.7
20260508004454 50 32 0.0 2.0 0.00 0.00 0.00 49 1011.7
20260508003952 50 106 1.0 2.0 0.00 0.00 0.00 49 1011.5
20260508003448 51 74 0.0 2.0 0.00 0.00 0.00 47 1011.5
20260508002946 51 72 0.0 3.0 0.00 0.00 0.00 45 1011.5
20260508002442 51 75 3.0 3.0 0.00 0.00 0.00 46 1011.3
20260508001938 51 71 3.0 3.0 0.00 0.00 0.00 46 1011.4
20260508001435 51 60 0.0 3.0 0.00 0.00 0.00 47 1011.3
20260508000931 51 70 0.0 2.0 0.00 0.00 0.00 45 1011.2
20260508000427 51 66 2.0 2.0 0.00 0.00 0.00 45 1011.2
20260507235924 51 60 2.0 2.0 0.00 0.00 0.00 45 1011.3
20260507235421 51 59 3.0 4.0 0.00 0.00 0.00 46 1011.3
20260507234918 51 355 3.0 5.0 0.00 0.00 0.00 46 1011.6
20260507234415 51 0 1.0 6.0 0.00 0.00 0.00 48 1011.5
20260507233911 52 8 3.0 4.0 0.00 0.00 0.00 46 1011.4
20260507233409 52 4 6.0 7.0 0.00 0.00 0.00 48 1011.5
20260507232907 52 337 4.0 8.0 0.00 0.00 0.00 44 1011.5
20260507232403 54 325 4.0 5.0 0.00 0.00 0.00 46 1011.2
20260507231901 52 350 4.0 6.0 0.00 0.00 0.00 45 1011.3
20260507231357 52 313 8.0 9.0 0.00 0.00 0.00 46 1011.2
20260507230853 53 255 3.0 5.0 0.00 0.00 0.00 45 1011.5
20260507230351 52 348 2.0 5.0 0.00 0.00 0.00 46 1011.2
20260507225850 52 223 4.0 7.0 0.00 0.00 0.00 46 1011.3
20260507225347 53 263 8.0 10.0 0.00 0.00 0.00 46 1011.6
20260507224843 52 247 7.0 10.0 0.00 0.00 0.00 45 1011.4
20260507224340 53 229 13.0 13.0 0.00 0.00 0.00 46 1011.5
20260507223836 53 318 6.0 7.0 0.00 0.00 0.00 45 1011.5
20260507223332 52 288 2.0 11.0 0.00 0.00 0.00 47 1011.7
20260507222829 52 252 9.0 15.0 0.00 0.00 0.00 46 1011.6
20260507222326 52 226 5.0 9.0 0.00 0.00 0.00 48 1011.6
20260507221823 53 227 12.0 12.0 0.00 0.00 0.00 47 1011.6
20260507221319 53 228 11.0 16.0 0.00 0.00 0.00 46 1011.5
20260507220815 52 229 6.0 15.0 0.00 0.00 0.00 46 1011.5
20260507220314 54 273 3.0 6.0 0.00 0.00 0.00 46 1011.9
20260507215810 53 276 3.0 10.0 0.00 0.00 0.00 46 1011.8
20260507215307 52 248 8.0 11.0 0.00 0.00 0.00 45 1011.7
20260507214804 52 211 3.0 6.0 0.00 0.00 0.00 50 1011.8
20260507214302 51 236 3.0 10.0 0.00 0.00 0.00 49 1011.8
20260507213756 51 243 7.0 14.0 0.00 0.00 0.00 47 1011.6
20260507213254 53 264 5.0 12.0 0.00 0.00 0.00 47 1011.6
20260507212750 51 253 11.0 19.0 0.00 0.00 0.00 48 1011.7
20260507212247 51 230 15.0 19.0 0.00 0.00 0.00 49 1011.8
20260507211743 51 204 7.0 8.0 0.00 0.00 0.00 50 1012.1
20260507211240 50 247 8.0 14.0 0.00 0.00 0.00 50 1011.8
20260507210737 51 246 13.0 17.0 0.00 0.00 0.00 50 1011.7
20260507210233 51 221 7.0 18.0 0.00 0.00 0.00 48 1012.0
20260507205730 51 228 7.0 15.0 0.00 0.00 0.00 50 1012.0
20260507205227 52 248 14.0 18.0 0.00 0.00 0.00 50 1011.9
20260507204723 51 199 9.0 13.0 0.00 0.00 0.00 49 1011.9
20260507204221 50 226 16.0 18.0 0.00 0.00 0.00 49 1012.1
20260507203719 51 240 15.0 18.0 0.00 0.00 0.00 50 1012.0
20260507203216 51 257 13.0 18.0 0.00 0.00 0.00 49 1012.1
20260507202712 51 236 10.0 13.0 0.00 0.00 0.00 49 1012.1
20260507202208 50 232 15.0 19.0 0.00 0.00 0.00 49 1012.3
20260507201703 50 236 10.0 19.0 0.00 0.00 0.00 49 1012.3
20260507201200 50 223 8.0 15.0 0.00 0.00 0.00 51 1012.6
20260507200656 50 256 5.0 11.0 0.00 0.00 0.00 51 1012.7
20260507200152 50 250 8.0 16.0 0.00 0.00 0.00 51 1012.6
20260507195649 50 250 6.0 17.0 0.00 0.00 0.00 52 1012.5
20260507195146 50 254 10.0 14.0 0.00 0.00 0.00 51 1012.8
20260507194643 50 238 10.0 16.0 0.00 0.00 0.00 50 1012.7
20260507194138 49 222 12.0 16.0 0.00 0.00 0.00 50 1012.7
20260507193636 50 198 1.0 19.0 0.00 0.00 0.00 51 1013.0
20260507193133 49 254 5.0 12.0 0.00 0.00 0.00 50 1013.0
20260507192629 49 215 9.0 14.0 0.00 0.00 0.00 50 1012.9
20260507192126 50 237 6.0 14.0 0.00 0.00 0.00 51 1013.0
20260507191621 49 237 15.0 16.0 0.00 0.00 0.00 51 1013.0
20260507191118 49 237 12.0 20.0 0.00 0.00 0.00 51 1013.1
20260507190616 50 227 11.0 16.0 0.00 0.00 0.00 52 1013.0
20260507190115 49 225 11.0 14.0 0.00 0.00 0.00 51 1013.0
20260507185613 49 267 6.0 16.0 0.00 0.00 0.00 52 1013.0
20260507185109 49 248 15.0 17.0 0.00 0.00 0.00 52 1012.8
20260507184607 49 236 12.0 16.0 0.00 0.00 0.00 52 1013.0
20260507184104 49 253 12.0 17.0 0.00 0.00 0.00 53 1013.0
20260507183600 48 283 4.0 20.0 0.00 0.00 0.00 51 1012.8
20260507183058 49 246 4.0 10.0 0.00 0.00 0.00 50 1013.0
20260507182554 49 239 17.0 20.0 0.00 0.00 0.00 52 1013.0
20260507182050 49 228 11.0 16.0 0.00 0.00 0.00 52 1013.2
20260507181547 49 258 9.0 15.0 0.00 0.00 0.00 51 1013.2
20260507181043 48 243 12.0 17.0 0.00 0.00 0.00 51 1013.2
20260507180539 50 234 7.0 17.0 0.00 0.00 0.00 51 1013.4
20260507180037 49 267 9.0 15.0 0.00 0.00 0.00 51 1013.3
20260507175532 48 235 14.0 21.0 0.00 0.00 0.00 50 1013.4
20260507175031 48 245 13.0 24.0 0.00 0.00 0.00 50 1013.5
20260507174527 49 7 2.0 20.0 0.00 0.00 0.00 50 1013.3
20260507174025 49 238 9.0 19.0 0.00 0.00 0.00 51 1013.6
20260507173522 48 240 12.0 20.0 0.00 0.00 0.00 50 1013.5
20260507173019 48 230 15.0 25.0 0.00 0.00 0.00 50 1013.3
20260507172515 48 242 12.0 16.0 0.00 0.00 0.00 51 1013.7
20260507172012 48 220 15.0 20.0 0.00 0.00 0.00 51 1013.6
20260507171507 49 231 17.0 24.0 0.00 0.00 0.00 52 1013.7
20260507171005 48 243 18.0 21.0 0.00 0.00 0.00 50 1013.7
20260507170501 48 229 13.0 20.0 0.00 0.00 0.00 52 1013.7
20260507165958 47 202 12.0 15.0 0.00 0.00 0.00 51 1014.0
20260507165454 47 225 4.0 15.0 0.00 0.00 0.00 52 1014.1
20260507164950 47 241 23.0 24.0 0.00 0.00 0.00 52 1014.0
20260507164447 48 226 11.0 22.0 0.00 0.00 0.00 53 1014.3
20260507163944 48 247 16.0 20.0 0.00 0.00 0.00 51 1014.1
20260507163441 48 221 7.0 19.0 0.00 0.00 0.00 50 1014.3
20260507162938 47 219 9.0 20.0 0.00 0.00 0.00 50 1014.3
20260507162433 47 240 13.0 16.0 0.00 0.00 0.00 51 1014.4
20260507161931 46 299 8.0 16.0 0.00 0.00 0.00 49 1014.5
20260507161427 47 244 12.0 20.0 0.00 0.00 0.00 50 1014.7
20260507160924 47 245 14.0 26.0 0.00 0.00 0.00 50 1014.7
20260507160420 48 235 16.0 21.0 0.00 0.00 0.00 49 1014.5
20260507155916 47 216 7.0 11.0 0.00 0.00 0.00 48 1014.6
20260507155412 46 266 6.0 24.0 0.00 0.00 0.00 48 1014.7
20260507154909 47 235 16.0 16.0 0.00 0.00 0.00 50 1014.7
20260507154406 47 185 3.0 13.0 0.00 0.00 0.00 51 1014.7
20260507153903 48 249 10.0 16.0 0.00 0.00 0.00 52 1014.6
20260507153359 46 243 11.0 17.0 0.00 0.00 0.00 52 1014.7
20260507152856 47 227 10.0 11.0 0.00 0.00 0.00 52 1015.0
20260507152352 46 251 8.0 13.0 0.00 0.00 0.00 51 1014.9
20260507151848 45 259 6.0 11.0 0.00 0.00 0.00 50 1015.0
20260507151344 46 324 6.0 11.0 0.00 0.00 0.00 51 1014.7
20260507150842 45 273 6.0 13.0 0.00 0.00 0.00 54 1014.9
20260507150338 45 249 7.0 13.0 0.00 0.00 0.00 52 1015.0
20260507145834 46 282 6.0 15.0 0.00 0.00 0.00 55 1015.1
20260507145331 45 228 15.0 15.0 0.00 0.00 0.00 56 1015.2
20260507144828 44 259 7.0 14.0 0.00 0.00 0.00 54 1015.2
20260507144326 44 244 8.0 9.0 0.00 0.00 0.00 52 1015.3
20260507143822 44 325 8.0 14.0 0.00 0.00 0.00 51 1015.4
20260507143319 45 300 7.0 15.0 0.00 0.00 0.00 52 1015.5
20260507142815 46 303 13.0 14.0 0.00 0.00 0.00 56 1015.4
20260507142312 44 299 14.0 16.0 0.00 0.00 0.00 49 1015.7
20260507141809 45 315 16.0 16.0 0.00 0.00 0.00 54 1015.7
20260507141306 45 316 16.0 16.0 0.00 0.00 0.00 55 1015.4
20260507140801 45 332 10.0 15.0 0.00 0.00 0.00 55 1015.5
20260507140259 45 332 8.0 15.0 0.00 0.00 0.00 56 1015.9
20260507135756 44 315 13.0 16.0 0.00 0.00 0.00 56 1015.6
20260507135253 43 317 12.0 17.0 0.00 0.00 0.00 56 1015.6
20260507134750 43 320 13.0 18.0 0.00 0.00 0.00 57 1015.6
20260507134246 43 320 11.0 13.0 0.00 0.00 0.00 59 1015.6
20260507133742 43 301 8.0 13.0 0.00 0.00 0.00 58 1015.7
20260507133239 43 344 6.0 14.0 0.00 0.00 0.00 60 1015.9
20260507132736 43 282 11.0 18.0 0.00 0.00 0.00 61 1015.6
20260507132233 43 292 10.0 13.0 0.00 0.00 0.00 64 1015.8
20260507131730 42 329 11.0 11.0 0.00 0.00 0.00 65 1015.9
20260507131227 41 323 10.0 15.0 0.00 0.00 0.00 67 1015.8
20260507130724 41 301 8.0 13.0 0.00 0.00 0.00 69 1016.0
20260507130221 40 295 4.0 9.0 0.00 0.00 0.00 70 1016.0
20260507125720 40 290 4.0 11.0 0.00 0.00 0.00 70 1016.0
20260507125217 40 298 10.0 13.0 0.00 0.00 0.00 70 1015.7
20260507124713 40 325 5.0 9.0 0.00 0.00 0.00 71 1015.9
20260507124211 40 298 9.0 15.0 0.00 0.00 0.00 71 1015.7
20260507123709 40 297 10.0 11.0 0.00 0.00 0.00 72 1015.9
20260507123206 40 258 6.0 12.0 0.00 0.00 0.00 72 1015.7
20260507122701 40 339 7.0 11.0 0.00 0.00 0.00 72 1015.7
20260507122157 40 264 6.0 10.0 0.00 0.00 0.00 71 1015.8
20260507121653 40 114 1.0 9.0 0.00 0.00 0.00 73 1015.7